Regional Weather Roundup
Issued by NWS Huntsville, AL

Home | Current Version | Previous Version | Text Only | Print | Product List | Glossary On
Versions: 1 2 3 4 5 6 7 8 9 10 11 12 13 14 15 16 17 18 19 20 21 22 23 24 25 26 27 28
000
ASUS44 KHUN 221910
RWRHUN

WEATHER ROUNDUP FOR THE TENNESSEE VALLEY
NATIONAL WEATHER SERVICE HUNTSVILLE AL
200 PM CDT FRI SEP 22 2017

ALZ001>004-222000-
NORTHWEST ALABAMA

CITY           SKY/WX    TMP DP  RH WIND       PRES   REMARKS
COURTLAND HCN    N/A     84 N/A N/A E5          N/A
RUSSELLVILLE     N/A     84 N/A N/A MISG        N/A
SHOALS AIRPORT MOSUNNY   89  68  49 NE5       30.03F HX  93
SHOALS TVA RES   N/A     86 N/A N/A MISG        N/A
$$

ALZ005>007-016-222000-
NORTH CENTRAL ALABAMA

CITY           SKY/WX    TMP DP  RH WIND       PRES   REMARKS
CULLMAN AG STN   N/A     86 N/A N/A CALM        N/A
DECATUR AP     PTSUNNY   87  69  54 CALM      30.02F HX  91
HUNTSVILLE AP  MOSUNNY   88  71  57 SW3       30.02F HX  94
MERIDIANVILLE  SUNNY     86  63  45 SE5       30.03F
REDSTONE ARSN  SUNNY     87  67  51 SE5       30.01F HX  90
VINEMONT AP    FAIR      89  65  46 CALM      30.06F HX  90
$$

ALZ008>010-222000-
NORTHEAST ALABAMA

CITY           SKY/WX    TMP DP  RH WIND       PRES   REMARKS
ALBERTVILLE    MOSUNNY   86  73  66 E5        30.03F HX  93
FORT PAYNE     PTSUNNY   84  63  48 SE3       30.03F
SCOTTSBORO HCN   N/A     86 N/A N/A MISG        N/A
VALLEY HEAD      N/A     82 N/A N/A MISG        N/A
$$

TNZ076-096-097-222000-
SOUTHEASTERN MIDDLE TENNESSEE

CITY           SKY/WX    TMP DP  RH WIND       PRES   REMARKS
TULLAHOMA      MOSUNNY   88  63  42 VRB3      30.07S
WINCHESTER     SUNNY     88  66  48 SW5       30.05S HX  90
$$

...SURROUNDING SITES...

CITY           SKY/WX    TMP DP  RH WIND       PRES   REMARKS
ATLANTA        MOSUNNY   85  64  49 N8        30.03F
ANNISTON       SUNNY     89  67  47 S6        30.01F HX  92
BIRMINGHAM     MOSUNNY   89  66  46 CALM      30.03F HX  91
CHATTANOOGA    MOSUNNY   88  66  48 CALM      30.04F HX  90
DALTON         MOSUNNY   86  68  54 CALM      30.05F
GADSDEN        SUNNY     88  70  55 S3        30.02F HX  93
GOLDEN TRNGL   SUNNY     91  69  48 CALM      29.99F HX  96
HALEYVILLE     FAIR      85  71  63 CALM      30.06F HX  90
JACKSON TN     SUNNY     89  68  49 CALM      30.03F HX  93
MEMPHIS        MOSUNNY   91  65  41 CALM      30.02F HX  93
NASHVILLE      MOSUNNY   88  63  43 S3        30.04F
OXFORD MS      FAIR      90  68  48 N7        30.03F HX  93
ROME           MOSUNNY   90  68  48 CALM      30.02F HX  94
SAVANNAH       MOSUNNY   88  70  55 VRB5      30.01F HX  92
TUPELO         MOSUNNY   88  67  49 N6        30.00F HX  91
TUSCALOOSA     MOSUNNY   92  69  47 NE5       29.99F HX  97
$$

...GULF COAST WEATHER...

CITY           SKY/WX    TMP DP  RH WIND       PRES   REMARKS
GULFPORT       SUNNY     89  73  59 S13       29.95F HX  97
PASCAGOULA     PTSUNNY   89  73  59 VRB7      29.95F THUNDER HX  97
MOBILE         PTSUNNY   90  71  53 SE8       29.97F HX  96
GULF SHORES    CLEAR     86  73  63 SE9       29.96F HX  93
PENSACOLA      MOSUNNY   87  72  60 S9        29.96F HX  93
DESTIN         SUNNY     88  71  57 S7        29.96F HX  94
PANAMA CITY    SUNNY     89  70  52 SE5       29.95F HX  94
APPALACHICOLA  SUNNY     86  69  56 SE13      29.95F HX  90
$$





USA.gov is the U.S. government's official web portal to all federal, state and local government web resources and services.